Weather reports worldwide

Advertisment
Shobdon, United Kingdom (3520): temperature & dewpoint: 23.04.2017 06:00:00 - 29.04.2017 06:00:00 (BST)Shobdon, United Kingdom (3520): temperature -20cm & temperature -100cm: 23.04.2017 06:00:00 - 29.04.2017 06:00:00 (BST)Shobdon, United Kingdom (3520): wind speed & gusts: 23.04.2017 06:00:00 - 29.04.2017 06:00:00 (BST)Shobdon, United Kingdom (3520): wind direction: 23.04.2017 06:00:00 - 29.04.2017 06:00:00 (BST)Shobdon, United Kingdom (3520): reduced air pressure: 23.04.2017 06:00:00 - 29.04.2017 06:00:00 (BST)Shobdon, United Kingdom (3520): visibility: 23.04.2017 06:00:00 - 29.04.2017 06:00:00 (BST)Shobdon, United Kingdom (3520): sunshine duration: 23.04.2017 06:00:00 - 29.04.2017 06:00:00 (BST)Shobdon, United Kingdom (3520): precipitation: 23.04.2017 06:00:00 - 29.04.2017 06:00:00 (BST)
Date & Time tt [°C] td [°C] tt -20cm [°C] tt -100cm [°C] ff [km/h] ff [kn] fx [km/h] fx [kn] dd ppp [hPa] vv [km] sd [min] rr [mm]
29.04.2017 06:00:00 4,0 3,6 - - 2 1 - - ESE 1015,3 16 0 0,0
29.04.2017 05:00:00 3,2 2,8 - - 2 1 - - W 1015,5 14 0 0,0
29.04.2017 04:00:00 2,9 1,9 - - 5 3 - - NW 1015,8 16 0 0,0
29.04.2017 03:00:00 4,4 3,6 - - 4 2 - - WNW 1015,9 19 0 0,0
29.04.2017 02:00:00 3,9 3,6 - - 4 2 - - WSW 1016,3 18 0 0,0
29.04.2017 01:00:00 1,8 0,2 - - 5 3 - - WSW 1016,8 12 - 0,0
29.04.2017 00:00:00 5,9 3,8 - - 5 3 - - WNW 1016,6 23 0 0,0
28.04.2017 23:00:00 7,1 4,7 - - 5 3 - - W 1016,8 24 0 0,0
28.04.2017 22:00:00 8,3 4,9 - - 11 6 - - WSW 1016,8 26 0 0,0
28.04.2017 21:00:00 9,3 4,5 - - 11 6 - - W 1016,4 28 0 0,0
28.04.2017 20:00:00 10,2 4,7 - - 11 6 - - W 1016,3 28 0 0,0
28.04.2017 19:00:00 11,5 5,2 - - 9 5 - - W 1016,0 28 0 0,0
28.04.2017 18:00:00 12,4 5,1 - - 11 6 - - W 1016,2 30 18 0,0
28.04.2017 17:00:00 11,2 5,8 - - 13 7 - - W 1016,5 26 0 0,0
28.04.2017 16:00:00 12,1 5,4 - - 4 2 - - W 1016,5 30 0 0,0
28.04.2017 15:00:00 11,6 5,4 - - 9 5 - - NNW 1016,6 30 0 0,0
28.04.2017 14:00:00 12,3 4,9 - - 5 3 - - N 1016,7 29 0 0,0
28.04.2017 13:00:00 11,8 4,5 - - 8 4 - - NW 1016,7 29 0 0,0
28.04.2017 12:00:00 12,1 3,3 - - 8 4 - - WNW 1017,1 30 18 0,0
28.04.2017 11:00:00 11,9 6,0 - - 5 3 - - SW 1017,2 27 36 0,0
28.04.2017 10:00:00 10,7 6,3 10,0 10,5 11 6 - - W 1017,8 28 30 0,0
28.04.2017 09:00:00 9,1 5,8 - - 8 4 - - W 1018,2 27 0 0,0
28.04.2017 08:00:00 7,5 5,6 - - 2 1 - - NW 1018,2 26 0 0,0
28.04.2017 07:00:00 5,0 4,2 - - 8 4 - - W 1018,2 24 0 0,0
28.04.2017 06:00:00 4,1 3,0 - - 8 4 - - W 1018,1 22 0 0,0
28.04.2017 05:00:00 2,8 1,8 - - 5 3 - - W 1018,2 24 0 0,0
28.04.2017 04:00:00 3,7 2,2 - - 5 3 - - W 1017,9 24 0 0,0
28.04.2017 03:00:00 5,9 3,8 - - 8 4 - - WNW 1018,1 27 0 0,0
28.04.2017 02:00:00 5,3 3,3 - - 5 3 - - W 1018,6 27 0 0,0
28.04.2017 01:00:00 5,2 4,0 - - 4 2 - - WNW 1018,7 28 - 0,0
28.04.2017 00:00:00 5,1 3,2 - - 4 2 - - W 1018,8 27 0 0,0
27.04.2017 23:00:00 3,7 2,0 - - 2 1 - - SW 1018,9 27 0 0,0
27.04.2017 22:00:00 6,8 3,8 - - 8 4 - - W 1018,5 30 0 0,0
27.04.2017 21:00:00 7,7 3,5 - - 8 4 - - NW 1018,2 35 0 0,0
27.04.2017 20:00:00 8,7 4,3 - - 9 5 - - WNW 1018,3 35 0 0,0
27.04.2017 19:00:00 8,8 4,9 - - 9 5 - - NW 1018,3 26 0 0,0
27.04.2017 18:00:00 8,9 5,2 - - 11 6 - - NW 1018,2 19 0 0,2
27.04.2017 17:00:00 9,5 6,2 - - 11 6 - - NW 1018,1 35 6 0,4
27.04.2017 16:00:00 11,2 4,2 - - 21 11 - - NW 1018,0 30 6 0,0
27.04.2017 15:00:00 10,3 5,1 - - 15 8 - - NW 1018,6 35 6 0,0
27.04.2017 14:00:00 11,7 4,4 - - 18 10 - - W 1018,8 30 30 0,0
27.04.2017 13:00:00 9,6 3,3 - - 13 7 - - W 1019,4 30 0 0,0
27.04.2017 12:00:00 10,0 3,2 - - 11 6 - - WNW 1019,7 25 6 0,0
27.04.2017 11:00:00 9,2 2,6 - - 13 7 - - WNW 1020,2 27 18 0,0
27.04.2017 10:00:00 7,4 2,1 10,2 10,7 11 6 - - WNW 1020,9 30 12 0,0
27.04.2017 09:00:00 7,0 1,6 - - 11 6 - - NW 1021,1 30 60 0,0
27.04.2017 08:00:00 3,1 0,1 - - 8 4 - - WSW 1021,5 25 18 0,0
27.04.2017 07:00:00 1,7 -0,6 - - 8 4 - - WSW 1021,6 27 18 0,0
27.04.2017 06:00:00 -0,5 -2,2 - - 9 5 - - W 1021,7 27 0 0,0
27.04.2017 05:00:00 -2,1 -3,6 - - 4 2 - - W 1021,9 23 0 0,0
27.04.2017 04:00:00 -0,1 -2,6 - - 8 4 - - W 1022,0 27 0 0,0
27.04.2017 03:00:00 0,2 -2,2 - - 8 4 - - WNW 1022,1 28 0 0,0
27.04.2017 02:00:00 -0,5 -2,9 - - 5 3 - - WSW 1022,3 29 0 0,0
27.04.2017 01:00:00 0,2 -3,5 - - 5 3 - - W 1022,4 30 - 0,0
27.04.2017 00:00:00 0,9 -2,7 - - 9 5 - - NW 1022,4 30 0 0,0
26.04.2017 23:00:00 -0,5 -3,7 - - 0 0 - - N 1022,5 28 0 0,0
26.04.2017 22:00:00 4,6 -3,3 - - 8 4 - - N 1022,0 30 0 0,0
26.04.2017 21:00:00 5,5 -3,6 - - 9 5 - - N 1021,5 30 6 0,0
26.04.2017 20:00:00 7,0 -3,8 - - 13 7 - - NNE 1020,9 30 42 0,0
26.04.2017 19:00:00 7,9 -2,4 - - 9 5 - - ENE 1020,3 30 0 0,0
26.04.2017 18:00:00 8,8 -3,2 - - 13 7 - - NE 1020,0 30 36 0,0
26.04.2017 17:00:00 10,4 -3,1 - - 11 6 - - NNE 1019,9 30 60 0,0
26.04.2017 16:00:00 9,1 -3,1 - - 15 8 - - NNE 1020,2 30 54 0,0
26.04.2017 15:00:00 9,7 -0,9 - - 13 7 - - NNE 1020,3 30 42 0,0
26.04.2017 14:00:00 8,6 -2,3 - - 15 8 - - NNE 1020,5 30 18 0,0
26.04.2017 13:00:00 7,8 -2,2 - - 15 8 - - NNW 1020,6 28 18 0,0
26.04.2017 12:00:00 6,7 -1,7 - - 13 7 - - N 1020,7 30 12 0,0
26.04.2017 11:00:00 6,6 0,1 - - 8 4 - - N 1020,6 26 24 0,0
26.04.2017 10:00:00 5,6 -0,9 10,7 10,7 13 7 - - N 1020,8 28 54 0,0
26.04.2017 09:00:00 5,3 -0,8 - - 15 8 - - N 1020,7 30 60 0,0
26.04.2017 08:00:00 3,9 -1,0 - - 18 10 - - N 1020,3 29 60 0,0
26.04.2017 07:00:00 3,0 -1,6 - - 21 11 - - N 1019,9 27 36 0,0
26.04.2017 06:00:00 2,2 -1,5 - - 9 5 - - N 1019,8 25 0 0,0
26.04.2017 05:00:00 2,6 -1,5 - - 13 7 - - N 1019,2 27 0 0,0
26.04.2017 04:00:00 3,0 -1,3 - - 11 6 - - N 1019,1 26 0 0,0
26.04.2017 03:00:00 3,4 -0,7 - - 11 6 - - N 1019,1 27 0 0,0
26.04.2017 02:00:00 2,5 -0,8 - - 8 4 - - N 1019,3 30 0 0,0
26.04.2017 01:00:00 3,5 -0,5 - - 13 7 - - N 1019,0 30 - 0,0
26.04.2017 00:00:00 3,9 0,3 - - 13 7 - - N 1018,5 30 0 0,0
25.04.2017 23:00:00 3,7 0,3 - - 11 6 - - NNW 1018,2 30 0 0,0
25.04.2017 22:00:00 3,5 0,1 - - 5 3 - - NNE 1017,9 30 0 0,0
25.04.2017 21:00:00 3,9 0,4 - - 11 6 - - N 1017,1 30 0 0,0
25.04.2017 20:00:00 3,7 1,3 - - 11 6 48 26 NNW 1017,0 35 18 0,0
25.04.2017 19:00:00 8,2 -1,4 - - 16 9 - - N 1015,7 30 36 0,0
25.04.2017 18:00:00 8,5 -1,6 - - 18 10 - - N 1015,5 30 18 0,0
25.04.2017 17:00:00 8,9 -1,0 - - 13 7 - - N 1015,4 35 36 0,2
25.04.2017 16:00:00 8,8 0,3 - - 22 12 - - N 1015,6 25 42 0,2
25.04.2017 15:00:00 6,2 -0,8 - - 22 12 48 26 N 1016,0 22 30 0,0
25.04.2017 14:00:00 7,8 -2,4 - - 22 12 - - N 1015,7 35 24 0,0
25.04.2017 13:00:00 9,4 -1,8 - - 16 9 - - N 1015,8 35 36 0,0
25.04.2017 12:00:00 7,8 -1,1 - - 15 8 - - N 1016,1 35 36 0,0
25.04.2017 11:00:00 6,5 -1,6 - - 18 10 - - NNE 1016,2 35 48 0,0
25.04.2017 10:00:00 6,1 -0,6 11,2 10,7 18 10 - - N 1015,9 30 36 0,0
25.04.2017 09:00:00 4,8 -0,5 - - 11 6 - - NNE 1016,0 30 24 0,0
25.04.2017 08:00:00 4,2 0,0 - - 13 7 - - NNW 1015,5 35 60 0,0
25.04.2017 07:00:00 2,9 0,2 - - 11 6 - - WNW 1014,9 35 30 0,0
25.04.2017 06:00:00 2,5 -0,4 - - 15 8 - - NW 1014,5 30 0 0,0
25.04.2017 05:00:00 2,5 -1,1 - - 8 4 - - NW 1014,1 30 0 0,0
25.04.2017 04:00:00 2,4 -0,9 - - 11 6 - - WNW 1014,1 30 0 0,0
25.04.2017 03:00:00 0,5 -3,7 - - 9 5 - - W 1014,6 30 0 0,0
25.04.2017 02:00:00 1,4 -3,7 - - 11 6 - - W 1015,0 28 0 0,0
25.04.2017 01:00:00 0,5 -3,9 - - 5 3 - - WNW 1015,8 29 - 0,0
25.04.2017 00:00:00 2,6 -4,3 - - 9 5 - - NW 1016,3 29 0 0,0
24.04.2017 23:00:00 4,0 -5,2 - - 16 9 - - NNW 1016,4 30 0 0,0
24.04.2017 22:00:00 5,0 -3,3 - - 16 9 - - NNW 1016,2 27 0 0,0
24.04.2017 21:00:00 5,4 -5,3 - - 9 5 - - NW 1015,9 40 0 0,0
24.04.2017 20:00:00 6,3 -1,4 - - 11 6 - - NW 1015,5 35 30 0,0
24.04.2017 19:00:00 7,7 -0,7 - - 15 8 - - N 1015,4 35 18 0,0
24.04.2017 18:00:00 8,3 2,6 - - 16 9 - - N 1015,2 35 0 0,0
24.04.2017 17:00:00 8,5 4,5 - - 16 9 - - NNW 1015,1 17 6 0,2
24.04.2017 16:00:00 9,8 7,1 - - 9 5 - - NNW 1014,7 45 12 0,6
24.04.2017 15:00:00 11,9 4,8 - - 22 12 - - WNW 1014,7 35 30 0,0
24.04.2017 14:00:00 10,2 6,3 - - 16 9 - - NW 1015,3 25 6 0,0
24.04.2017 13:00:00 11,3 5,7 - - 18 10 - - NW 1015,9 22 0 0,0
24.04.2017 12:00:00 11,5 5,8 - - 16 9 - - W 1016,2 28 0 0,0
24.04.2017 11:00:00 11,2 7,4 - - 11 6 - - W 1016,8 22 0 0,0
24.04.2017 10:00:00 9,9 8,3 11,7 10,7 9 5 - - W 1017,2 20 0 0,0
24.04.2017 09:00:00 9,0 7,8 - - 9 5 - - W 1017,6 19 0 0,0
24.04.2017 08:00:00 8,5 6,3 - - 2 1 - - S 1018,1 14 0 0,0
24.04.2017 07:00:00 7,7 5,4 - - 4 2 - - ESE 1018,3 25 0 0,0
24.04.2017 06:00:00 8,1 5,2 - - 8 4 - - WNW 1018,6 26 0 0,0
24.04.2017 05:00:00 6,0 5,3 - - 4 2 - - ESE 1019,2 22 0 0,0
24.04.2017 04:00:00 4,0 3,8 - - 4 2 - - E 1020,0 16 0 0,0
24.04.2017 03:00:00 2,3 1,5 - - 2 1 - - W 1020,7 19 0 0,0
24.04.2017 02:00:00 4,1 2,5 - - 4 2 - - W 1021,4 22 0 0,0
24.04.2017 01:00:00 5,9 3,6 - - 8 4 - - W 1022,1 25 - 0,0
24.04.2017 00:00:00 5,4 2,7 - - 8 4 - - W 1022,6 24 0 0,0
23.04.2017 23:00:00 5,4 3,6 - - 5 3 - - NW 1022,9 26 0 0,0
23.04.2017 22:00:00 6,6 3,0 - - 5 3 - - W 1023,1 27 0 0,0
23.04.2017 21:00:00 9,3 3,3 - - 8 4 - - WNW 1023,0 28 0 0,0
23.04.2017 20:00:00 12,1 2,4 - - 9 5 - - NW 1022,8 30 60 0,0
23.04.2017 19:00:00 14,0 2,4 - - 13 7 - - NW 1023,0 30 60 0,0
23.04.2017 18:00:00 14,8 2,8 - - 13 7 - - NW 1023,2 30 60 0,0
23.04.2017 17:00:00 14,3 3,1 - - 11 6 - - WNW 1023,6 29 42 0,0
23.04.2017 16:00:00 14,7 5,6 - - 11 6 - - NW 1024,2 29 18 0,0
23.04.2017 15:00:00 13,5 5,3 - - 13 7 - - W 1025,0 28 12 0,0
23.04.2017 14:00:00 13,2 5,7 - - 4 2 - - SW 1025,6 26 18 0,0
23.04.2017 13:00:00 12,3 5,5 - - 5 3 - - WSW 1026,4 25 12 0,0
23.04.2017 12:00:00 12,3 5,4 - - 5 3 - - SSW 1027,1 26 18 0,0
23.04.2017 11:00:00 10,9 3,9 - - 5 3 - - SSW 1027,6 27 36 0,0
23.04.2017 10:00:00 11,0 4,2 11,7 10,7 5 3 - - S 1027,8 26 60 0,0
23.04.2017 09:00:00 8,9 3,9 - - 4 2 - - SW 1028,0 23 42 0,0
23.04.2017 08:00:00 7,7 3,7 - - 0 0 - - N 1028,2 22 30 0,0
23.04.2017 07:00:00 5,8 4,5 - - 2 1 - - ENE 1028,2 18 0 0,0
23.04.2017 06:00:00 5,2 3,8 - - 4 2 - - W 1028,1 20 0 0,0

tt = temperature
td = dewpoint
tt -20cm = temperature -20cm
tt -100cm = temperature -100cm
ff = wind speed
fx = gusts
dd = wind direction
ppp = reduced air pressure
vv = visibility
sd = sunshine duration
rr = precipitation

Next stations